Location: Capira
(53.1294°N, 8.2364°W)
Time: 14:08:23
(UTC+00:00)

Daily predictions for brighter satellites

Satellite Brightness Start Highest point End
(mag) Time Altitude Azimuth Time Altitude Azimuth Time Altitude Azimuth
Cosmos 1371 Rocket 4.1 20:49:54 10° SSW 20:55:13 87° ESE 21:00:36 10° NNE
Cosmos 292 Rocket 3.9 20:50:46 10° NNW 20:55:35 78° WSW 21:00:19 10° SSE
IRS-1A Rocket 4.5 20:53:14 10° SSE 20:59:03 90° WSW 21:05:01 10° NNW
Cosmos 2228 4.3 20:56:24 10° SE 20:59:35 22° E 21:02:46 10° NE
USA 186 1.6 20:58:51 10° SSE 21:01:26 50° ENE 21:04:06 10° N
Helios 1A Rocket 2.3 20:58:20 10° NNE 21:01:31 83° WNW 21:04:40 10° SSW
Tsikada Rocket 4.5 20:56:37 10° N 21:02:33 45° ENE 21:08:26 10° SE
Okean O Rocket 1.6 20:58:32 10° SSE 21:02:48 71° ENE 21:07:06 10° N
Cosmos 1697 Rocket 3.2 20:59:27 10° NW 21:04:58 57° WSW 21:10:26 10° S
Cosmos 1741 Rocket 4.1 21:01:51 10° NNW 21:07:13 87° ENE 21:12:31 10° SSE
ERS-1 Rocket 3.7 21:02:38 10° S 21:07:31 53° W 21:12:27 10° NNW
CZ-4C R/B 2.4 21:04:04 10° S 21:07:53 33° ESE 21:12:37 10° ENE
SL-16 R/B 3.5 21:04:00 10° NNW 21:09:00 30° NE 21:13:58 10° E
Cosmos 1725 Rocket 4.2 21:03:17 10° SSE 21:09:21 53° E 21:15:23 10° NNE
Cosmos 1452 Rocket 4.0 21:04:36 10° S 21:09:25 39° ESE 21:14:15 10° NE
Cosmos 1867 3.6 21:06:31 10° SW 21:11:58 89° NW 21:17:29 10° NE
ATLAS 3B R/B 3.3 21:05:24 10° NW 21:13:06 63° SW 21:20:21 10° SSE
Okean-O 2.6 21:11:19 10° SSE 21:15:42 89° E 21:20:07 10° NNW
Cosmos 968 Rocket 4.2 21:12:35 10° NNW 21:17:41 52° WSW 21:22:45 10° S
Cosmos 1331 Rocket 4.0 21:13:22 10° S 21:18:31 61° ESE 21:23:40 10° NNE
Cosmos 1892 Rocket 3.5 21:14:30 10° N 21:18:52 75° ENE 21:23:10 10° SSE
Cosmos 2333 Rocket 3.4 21:16:51 10° NNW 21:21:58 32° NE 21:27:04 10° ESE
CZ-4B R/B 3.7 21:19:07 11° SE 21:23:35 52° ENE 21:28:16 10° N
USA 245 4.4 21:19:04 10° SSE 21:24:53 70° ENE 21:30:40 10° N
Cosmos 1455 Rocket 3.2 21:21:22 10° S 21:25:42 59° E 21:30:03 10° NNE
Meteor 2-1 Rocket 4.4 21:21:46 10° SSW 21:27:29 81° WNW 21:33:05 10° NNE
Cosmos 2016 Rocket 4.1 21:22:11 10° S 21:28:23 65° E 21:34:32 10° NNE
SL-08 R/B 3.4 21:24:14 10° NNE 21:29:09 87° WNW 21:33:57 10° SSW
Cosmos 2173 Rocket 4.1 21:24:35 10° SSW 21:30:44 80° WNW 21:37:00 10° N
Okean 1 Rocket 3.4 21:27:29 10° SSW 21:31:51 69° WNW 21:36:17 10° N
Cosmos 1980 Rocket 2.4 21:27:28 10° NW 21:33:11 72° WSW 21:38:33 11° SSE
Cosmos 2084 4.2 21:30:58 10° WSW 21:35:02 54° NW 21:39:08 10° NE
CZ-4 R/B 3.9 21:33:13 10° SW 21:35:25 15° W 21:37:38 10° NW
CZ-4B R/B 2.4 21:33:11 14° SSE 21:35:59 68° ENE 21:39:22 10° N
Cosmos 2061 Rocket 4.3 21:30:18 10° SSE 21:36:14 49° E 21:42:15 10° NNE
Cosmos 1782 2.6 21:33:03 10° S 21:36:28 53° E 21:39:55 10° NNE
SPOT 3 Rocket 3.5 21:34:29 11° SSE 21:39:23 80° ENE 21:44:34 10° NNW
Cosmos 2084 Rocket 3.4 21:42:54 10° NW 21:47:06 86° NE 21:50:19 17° SE
Cosmos 1758 Rocket 3.9 21:46:20 10° N 21:50:37 50° ENE 21:53:42 18° SE
Cosmos 1110 Rocket 4.3 21:47:30 10° SSW 21:52:47 74° WNW 21:58:08 10° NNE
Terra 3.8 21:49:21 10° SSW 21:53:10 24° W 21:57:01 10° NW
Helios 1B rocket 4.2 21:51:51 10° E 21:53:59 16° ENE 21:56:08 10° NNE
Cosmos 1833 Rocket 3.6 21:48:47 10° SW 21:54:15 53° NW 21:59:47 10° NNE
IRS-1C Rocket 4.1 21:51:54 14° SSE 21:56:26 88° ENE 22:01:46 10° NNW
CZ-2C R/B 1.9 21:55:17 24° SSE 21:56:47 67° ENE 21:59:35 10° N
YAOGAN 11 4.4 21:52:51 10° NNE 21:57:14 69° WNW 22:01:38 10° SSW
Cosmos 1802 Rocket 4.2 21:51:17 10° SSW 21:57:28 74° WNW 22:03:38 10° N
Cosmos 1743 3.5 21:55:14 10° NNW 21:58:01 34° W 22:00:44 10° SSW
Gbstr 26 Del rocket 4.0 21:53:47 10° W 21:58:20 35° SSW 22:00:52 19° SSE
Cosmos 2360 Rocket 3.4 21:54:04 10° NNW 21:59:15 35° NE 22:04:14 11° ESE
NOSS 3-3 (C) 4.4 22:02:52 14° S 22:06:40 32° ESE 22:12:01 10° ENE
ISS -2.9 22:04:04 10° SSW 22:06:59 28° SSE 22:08:14 22° ESE
Cosmos 2237 4.3 22:03:16 10° NNW 22:09:02 80° WSW 22:13:13 19° SSE
USA 305 2.8 22:07:26 10° WNW 22:11:26 51° SSW 22:13:09 26° SE
Cosmos 44 Rocket 3.4 22:06:36 10° SW 22:11:43 85° SE 22:16:57 10° NE
Cosmos 1602 Rocket 3.8 22:12:04 10° N 22:16:18 52° ENE 22:18:42 24° SE
Ariane Rocket 3.2 22:12:25 16° S 22:16:28 67° WSW 22:21:32 10° NNW
Cosmos 2219 Rocket 3.5 22:11:41 10° NNW 22:16:44 32° NE 22:21:45 10° ESE
DEBRIS 3.7 22:13:58 10° WSW 22:17:20 58° SSE 22:28:02 10° E
NOSS 3-4 (A) 4.1 22:12:50 10° NW 22:19:09 63° NE 22:26:00 13° ESE
NOSS 3-4 (C) 4.1 22:13:26 10° NW 22:19:46 62° NE 22:26:40 12° ESE
Cosmos 1437 Rocket 3.0 22:21:47 28° SE 22:23:02 40° E 22:26:25 10° NNE
Cosmos 2369 4.1 22:18:45 10° NW 22:24:21 58° WSW 22:28:18 20° S
Cosmos 2151 2.8 22:22:28 10° N 22:26:38 88° ENE 22:28:56 26° SSE
Cosmos 2322 Rocket 2.8 22:21:28 10° NNW 22:26:59 50° NE 22:31:03 18° ESE
ATLAS 2AS CENTAUR R/B 3.7 22:23:32 10° W 22:30:11 48° NNW 22:36:46 10° NE
Cosmos 2082 Rocket 2.2 22:24:33 10° SSW 22:30:16 80° ESE 22:36:00 10° NNE
Cosmos 1626 Rocket 3.9 22:29:58 10° NNW 22:34:15 60° W 22:37:03 21° S
Cosmos 2228 3.9 22:32:18 10° SSW 22:36:16 45° WNW 22:40:15 10° N
Cosmos 1891 Rocket 4.4 22:31:35 18° S 22:36:17 74° E 22:42:21 10° NNE
Meteor 1-5 Rocket 4.4 22:30:57 10° N 22:36:33 64° ENE 22:40:03 24° SSE
Okean O Rocket 4.0 22:36:44 10° SW 22:39:29 16° W 22:42:14 10° NW
USA 234 4.0 22:34:40 10° ENE 22:40:12 28° SE 22:42:48 22° SSE
Cosmos 1607 3.9 22:37:44 10° SW 22:43:55 85° SE 22:50:15 10° NE
Okean 1-7 Rocket 3.7 22:40:38 10° N 22:45:03 63° ENE 22:47:08 30° SSE
Cosmos 2278 3.7 22:40:29 10° NNW 22:46:14 82° ENE 22:49:38 26° SE
Cosmos 1777 Rocket 4.2 22:41:04 10° NNW 22:46:17 62° ENE 22:49:16 25° SE
Helios 1A 3.2 22:43:43 10° NNE 22:47:32 45° E 22:48:44 34° SSE
Cosmos 909 Rocket 4.0 22:42:19 10° SSW 22:48:36 75° SE 22:55:09 10° NE
Cosmos 1805 2.7 22:46:50 10° N 22:50:07 79° ENE 22:51:00 45° SSE
Cosmos 1992 Rocket 3.9 22:45:56 14° SSW 22:50:30 86° ESE 22:55:45 10° NNE
BREEZE-M DEB (TANK) 3.7 22:49:06 10° WSW 22:49:34 13° WSW 22:49:34 13° WSW
COSMOS 2406 3.3 22:49:26 19° S 22:53:34 63° ESE 22:59:15 10° NE
SL-16 R/B 2.2 22:47:57 10° NW 22:53:39 75° WSW 22:56:47 27° SSE
Cosmos 1606 Rocket 3.9 22:52:45 32° SE 22:54:20 47° E 22:58:30 10° NNE
CZ-4C R/B 2.6 22:51:14 10° WSW 22:55:43 57° NNW 23:01:35 10° NE
Cosmos 1486 Rocket 4.0 22:52:49 10° NNW 22:58:06 83° ENE 23:00:50 29° SSE
Nadezhda 4 Rocket 3.9 22:53:06 10° N 22:59:16 85° E 23:02:51 27° SSE
Cosmos 1766 4.3 22:57:54 10° NNE 23:00:37 24° ENE 23:01:17 23° E
CSL-04 DEB 4.2 23:00:26 40° SE 23:01:30 64° ENE 23:05:05 10° N
EP 1 4.0 22:59:11 10° NW 23:01:48 86° NE 23:01:54 81° ESE
Cosmos 2098 Rocket 3.2 23:02:09 28° S 23:04:54 80° E 23:09:28 10° NNE
Cosmos 2333 Rocket 2.3 23:01:03 10° NW 23:06:43 69° WSW 23:09:39 29° SSE
Cosmos 1726 Rocket 3.8 23:06:20 36° SE 23:07:25 45° E 23:11:18 10° NNE
SeaSat 1 4.1 23:04:08 10° E 23:08:18 29° NE 23:12:29 10° NNW
Cosmos 1076 Rocket 3.5 23:05:48 10° N 23:10:05 69° ENE 23:11:38 37° SSE
BREEZE-M DEB (TANK) 3.9 23:05:32 10° WSW 23:15:35 56° S 23:20:25 10° E
Cosmos 1980 Rocket 4.4 23:13:10 10° WNW 23:16:10 15° W 23:19:10 10° SW
Cosmos 2195 Rocket 4.5 23:11:04 10° N 23:17:22 81° E 23:20:43 29° SSE
CZ-2C R/B 4.1 23:16:22 14° ESE 23:19:57 27° ENE 23:24:17 10° N
Cosmos 1933 4.1 23:19:12 22° SW 23:21:18 43° WNW 23:24:58 10° N
Cosmos 2026 Rocket 4.1 23:17:28 10° N 23:23:53 78° E 23:27:17 30° SSE
Okean 1 2.9 23:23:58 54° SSE 23:24:39 73° E 23:28:14 10° NNE
Spot 4 3.9 23:23:21 33° SE 23:25:24 67° ENE 23:30:10 10° N
Helios 1B rocket 2.2 23:25:48 46° SSW 23:26:34 60° WSW 23:30:03 10° NNW
SAR-Lupe-2 4.2 23:26:37 35° E 23:27:16 40° ENE 23:30:26 10° N
Aureole 1 Rocket 4.2 23:23:19 10° NNW 23:28:19 52° ENE 23:32:02 23° SE
NOSS 3-3 (A) 3.8 23:23:34 10° SW 23:28:56 82° NW 23:35:31 10° NE
DNEPR-1 R/B 4.4 23:25:17 10° NW 23:30:35 64° SW 23:33:34 31° SSE
Cosmos 44 4.2 23:28:40 10° NW 23:34:00 54° NE 23:38:08 16° ESE
Cosmos 2333 4.2 23:31:06 10° NNW 23:36:49 79° WSW 23:39:28 33° SSE
Cosmos 1271 Rocket 4.4 23:38:07 18° E 23:38:07 18° E 23:40:27 10° NE
RESURS DK-1 4.2 23:37:54 10° NNW 23:41:18 26° NE 23:44:13 12° E
Cosmos 1464 Rocket 4.2 23:38:02 22° SSW 23:42:06 65° WNW 23:48:15 10° N
Cosmos 1375 Rocket 4.5 23:37:40 18° SSW 23:42:44 80° SE 23:49:22 10° NE
ISS -1.9 23:40:09 10° WSW 23:41:23 21° WSW 23:41:23 21° WSW
Cosmos 2360 Rocket 2.3 23:37:58 10° NW 23:43:36 62° WSW 23:45:58 34° S
Cosmos 1825 Rocket 4.3 23:40:31 10° NNW 23:44:37 43° W 23:46:09 30° SW
ALOS 2 2.5 23:43:55 42° SSE 23:45:22 83° ENE 23:49:48 10° NNW
ARIANE 5 R/B 2.6 23:44:33 43° S 23:46:00 82° WSW 23:50:29 10° NNW
Cosmos 1953 Rocket 3.6 23:42:05 10° NNW 23:46:26 68° W 23:47:47 42° SSW
Meteor 1-26 Rocket 4.2 23:45:25 35° S 23:47:44 70° E 23:53:21 10° NNE
Cosmos 2058 Rocket 3.2 23:48:52 44° SSE 23:50:00 61° E 23:54:19 10° NNE
